Tracking 25378 objects as of 22-Jan-2022
HD Live streaming from Space Station
objects crossing your sky now

ONEWEB-0069

Track ONEWEB-0069 now!
10-day predictions
ONEWEB-0069 is classified as:


NORAD ID: 45430
Int'l Code: 2020-020G
Perigee: 1,223.7 km
Apogee: 1,225.9 km
Inclination: 87.9 °
Period: 109.8 minutes
Semi major axis: 7595 km
RCS: Unknown
Launch date: March 21, 2020
Source: United Kingdom (UK)
Launch site: TYURATAM MISSILE AND SPACE COMPLEX (TTMTR)
aabbcc
Your satellite tracking list
Your tracking list is empty




NASA's NSSDC Master Catalog

Two Line Element Set (TLE):
1 45430U 20020G   22021.94683206  .00000514  00000-0  14151-2 0  9999
2 45430  87.8917 340.6394 0001460  81.2847 278.8446 13.11416142 92024
Source of the keplerian elements: AFSPC